sat.trackr.live / text

‹ back to catalog

SES-15 (WAAS/PRN 133)

NORAD 42709 · 2017-026A

PAYLOAD ACTIVE UNKNOWN

§ Identity

Operator
Country
SES
Launch date
2017-05-18
Launch site
FRGUI
Launch vehicle
Mass (kg)
RCS (m²)

Purposes: comms, nav

External: N2YO · Heavens-Above · Gunter

§ Orbital elements

Epoch: 2026-09-19T00:18:38.600928Z

Period
1,436.13 min
Inclination
0.0426°
Eccentricity
0.0000480
Mean motion
1.00269368 rev/d
Perigee alt
35,785.2 km
Apogee alt
35,789.3 km
Semi-major
42,165.4 km
B*
0.0000e+0
RAAN
342.8054°
Arg perigee
156.2843°
Mean anomaly
94.3400°
Rev number
837

§ Raw data

SES-15 (WAAS/PRN 133)1 42709U 17026A   26262.01294677  .00000056  00000+0  00000+0 0  99912 42709   0.0426 342.8054 0000480 156.2843  94.3400  1.00269368  8376

JSON: /api/v1/satellites/42709 · /tle

For live sub-satellite position, see the globe view (requires WebGL).

§ Visibility from observer

Set your observer location to see the next 7 days of passes ≥ 10°. The values pass through the URL so the page stays shareable.

No JS? Fill the form by hand. The geolocation button needs JavaScript.